Location: Greenwich
(51.4790°N, 0.0090°E)
Time: 19:32:45
(UTC+01:00)

Courier 1B - All Passes

Search period start: 23 April 2024 00:00
Search period end: 03 May 2024 00:00
Orbit: 962 x 1208 km, 28.3° (Epoch: 23 April)

Date Brightness Start Highest point End Pass type
(mag) Time Alt. Az. Time Alt. Az. Time Alt. Az.
25 Apr - 03:01:37 10° S 03:02:41 10° S 03:03:45 10° S visible
26 Apr - 02:07:46 10° S 02:09:11 11° S 02:10:36 10° SSE visible
27 Apr - 01:14:38 10° S 01:15:40 10° S 01:16:42 10° SSE night (unlit)
28 Apr - 02:13:02 10° SSW 02:14:39 11° S 02:16:17 10° S night (unlit)
29 Apr - 01:19:01 10° SSW 01:21:08 11° S 01:23:14 10° SSE night (unlit)
30 Apr - 00:25:31 10° SSW 00:27:36 11° S 00:29:40 10° SSE night (unlit)
30 Apr - 23:32:35 10° S 23:34:03 11° S 23:35:32 10° SSE night (unlit)
01 May - 01:24:59 10° SSW 01:26:34 11° S 01:28:10 10° S night (unlit)
02 May - 00:30:47 10° SSW 00:33:03 11° S 00:35:17 10° SSE night (unlit)
02 May - 23:37:08 10° SSW 23:39:30 12° S 23:41:52 10° SSE visible
